Pellston, MI

10:58 AM EDT on September 29, 2016 (GMT -0400)
Pellston Regional Airport Of Emmet County

Weather History for KPLN - November, 2012

Change the Weather History Date:

Monday, November 26, 2012

  Actual Average Record
Temperature  
Mean Temperature 24 °F -  
Max Temperature 28 °F 37 °F 62 °F (1984)
Min Temperature 21 °F 24 °F -10 °F (1949)
Degree Days  
Heating Degree Days 40    
Moisture  
Dew Point 18 °F    
Average Humidity 69    
Maximum Humidity 86    
Minimum Humidity 55    
Precipitation  
Precipitation 0.01 in - - ()
Sea Level Pressure  
Sea Level Pressure 30.15 in    
Wind  
Wind Speed 11 mph (WNW)    
Max Wind Speed 15 mph    
Max Gust Speed 22 mph    
Visibility 8 miles    
Events Snow    
Averages and records for this station are not official NWS values.
T = Trace of Precipitation, MM = Missing Value Source: NWS Daily Summary

Daily Weather History Graph

Daily Weather History Graph

Search for Another Location

Airport or City:

Trip Planner

Search our weather history database for the weather conditions in past years. The results will help you decide how hot, cold, wet, or windy it might be!

Date:

Astronomy

Nov. 26, 2012 Rise Set
Actual Time 7:53 AM EST 4:59 PM EST
Civil Twilight 7:20 AM EST 5:32 PM EST
Nautical Twilight 6:43 AM EST 6:09 PM EST
Astronomical Twilight 6:08 AM EST 6:44 PM EST
Moon 3:53 PM EST (11/26) 5:59 AM EST (11/26)
Length of Visible Light 10h 12m
Length of Day
9h 05m
Waxing Gibbous, 97% of the Moon is Illuminated
Nov 26
Waxing Gibbous
Nov 28
Full
Dec 6
Last Quarter
Dec 13
New
Dec 20
First Quarter

Hourly Weather History & Observations

Time (EST) Temp. Windchill Dew Point Humidity Pressure Visibility Wind Dir Wind Speed Gust Speed Precip Events Conditions
12:54 AM 28.9 °F 18.6 °F 18.0 °F 64% 29.96 in 10.0 mi WNW 12.7 mph - N/A   Mostly Cloudy
1:54 AM 28.9 °F 19.2 °F 18.0 °F 64% 29.98 in 10.0 mi WNW 11.5 mph 21.9 mph N/A   Overcast
2:54 AM 28.0 °F 16.5 °F 18.0 °F 66% 30.01 in 10.0 mi NW 15.0 mph - N/A   Overcast
3:54 AM 28.0 °F 18.1 °F 18.0 °F 66% 30.03 in 10.0 mi WNW 11.5 mph - N/A   Overcast
4:54 AM 28.0 °F 20.0 °F 16.0 °F 61% 30.04 in 10.0 mi WNW 8.1 mph - 0.00 in   Overcast
5:54 AM 28.9 °F 19.8 °F 15.1 °F 56% 30.06 in 10.0 mi WNW 10.4 mph - N/A   Overcast
6:54 AM 28.0 °F 19.3 °F 17.1 °F 63% 30.07 in 10.0 mi WNW 9.2 mph - 0.00 in   Overcast
7:54 AM 28.0 °F 20.8 °F 18.0 °F 66% 30.09 in 10.0 mi WNW 6.9 mph - 0.00 in   Overcast
8:54 AM 28.0 °F 20.0 °F 19.0 °F 69% 30.12 in 10.0 mi WNW 8.1 mph - 0.00 in   Overcast
9:54 AM 28.0 °F 19.3 °F 19.0 °F 69% 30.14 in 3.0 mi West 9.2 mph - 0.00 in Snow Light Snow
9:57 AM 28.4 °F 18.0 °F 19.4 °F 69% 30.11 in 1.8 mi West 12.7 mph 17.3 mph 0.00 in Snow Light Snow
10:19 AM 28.4 °F 20.4 °F 21.2 °F 74% 30.12 in 3.0 mi WNW 8.1 mph - 0.01 in Snow Light Snow
10:36 AM 26.6 °F 15.2 °F 21.2 °F 80% 30.12 in 2.5 mi WNW 13.8 mph 20.7 mph 0.01 in Snow Light Snow
10:38 AM 26.6 °F 16.2 °F 21.2 °F 80% 30.13 in 1.2 mi WNW 11.5 mph 20.7 mph 0.01 in Snow Light Snow
10:47 AM 26.6 °F 16.2 °F 23.0 °F 86% 30.13 in 0.8 mi WNW 11.5 mph - 0.01 in Snow Light Snow
10:54 AM 27.0 °F 16.1 °F 23.0 °F 85% 30.16 in 0.8 mi WNW 12.7 mph - 0.01 in Snow Light Snow
11:04 AM 28.4 °F 17.5 °F 23.0 °F 80% 30.13 in 2.5 mi WNW 13.8 mph - 0.00 in Snow Light Snow
11:07 AM 28.4 °F 18.0 °F 21.2 °F 74% 30.13 in 5.0 mi WNW 12.7 mph - 0.00 in Snow Light Snow
11:54 AM 28.0 °F 17.5 °F 19.9 °F 72% 30.17 in 10.0 mi WNW 12.7 mph - 0.00 in   Overcast
12:54 PM 28.9 °F 18.2 °F 17.1 °F 61% 30.17 in 10.0 mi NW 13.8 mph - N/A   Overcast
1:54 PM 28.0 °F 17.0 °F 17.1 °F 63% 30.17 in 10.0 mi WNW 13.8 mph - N/A   Overcast
2:54 PM 28.0 °F 17.5 °F 16.0 °F 61% 30.19 in 10.0 mi WNW 12.7 mph 21.9 mph N/A   Overcast
3:54 PM 28.0 °F 20.0 °F 16.0 °F 61% 30.19 in 10.0 mi WNW 8.1 mph - 0.00 in   Overcast
4:54 PM 26.1 °F 17.6 °F 12.0 °F 55% 30.20 in 10.0 mi West 8.1 mph - N/A   Scattered Clouds
5:54 PM 27.0 °F 21.6 °F 14.0 °F 58% 30.22 in 10.0 mi WSW 4.6 mph - N/A   Overcast
6:54 PM 27.0 °F 19.5 °F 18.0 °F 69% 30.24 in 5.0 mi NW 6.9 mph - 0.00 in Snow Light Snow
7:54 PM 28.0 °F 17.5 °F 19.0 °F 69% 30.25 in 10.0 mi NNW 12.7 mph - 0.00 in   Overcast
8:54 PM 27.0 °F 16.7 °F 18.0 °F 69% 30.27 in 10.0 mi NNW 11.5 mph - N/A   Overcast
9:54 PM 23.0 °F 15.8 °F 15.1 °F 72% 30.29 in 10.0 mi NW 5.8 mph - N/A   Scattered Clouds
10:54 PM 21.9 °F - 15.1 °F 75% 30.29 in 10.0 mi Calm Calm - N/A   Overcast
11:52 PM 24.8 °F - 17.6 °F 74% 30.26 in 10.0 mi Calm Calm - 0.00 in   Overcast
11:54 PM 24.1 °F - 18.0 °F 77% 30.30 in 10.0 mi Calm Calm - 0.00 in   Overcast